Tracking 18980 objects as of 23-Feb-2018
HD Live streaming from Space Station
objects crossing your sky now

FENGYUN 1C DEB

Track FENGYUN 1C DEB now!
10-day predictions


NORAD ID: 31929
Int'l Code: 1999-025CME
Perigee: 745.5 km
Apogee: 864.2 km
Inclination: 98.7 °
Period: 100.8 minutes
Semi major axis: 7175 km
RCS: 0.0033 m2 (small)
Launch date: May 10, 1999
Source: People's Republic of China (PRC)
Launch site: Taiyaun Space Center, China (TSC)

Note: This is SATELLITE DEBRIS
aabbcc
Your satellite tracking list
Your tracking list is empty




NASA's NSSDC Master Catalog

Two Line Element Set (TLE):
1 31929U 99025CME 18053.46617719 +.00000126 +00000-0 +65549-4 0  9999
2 31929 098.6886 145.5494 0082761 121.6998 239.2285 14.28216328299124
Source of the keplerian elements: AFSPC